Wind_Speed
3 2 1 7 8 8 9 6 12 10 7 6 6 13 13 20 15 7 10 13 16 17 22 23 22 20 19 18 18 16 15 13 10 9 8 8 8 7 7 6 6 6 5 5 5 4 4 3 3
3 5 6 12 9 9 12 13 8 11 12 8 7 4 8 13 15 14 8 12 17 18 23 24 23 21 19 18 17 15 15 12 11 9 8 7 7 7 6 6 5 5 5 4 3 3 3 3 3
6 7 14 6 12 12 3 5 12 12 7 3 6 9 5 8 9 7 11 16 17 18 22 23 23 22 20 18 16 16 14 13 11 9 7 7 7 6 6 5 5 4 3 3 3 3 3 2 2
6 7 11 10 7 9 12 9 15 10 7 2 3 13 9 9 5 9 14 16 16 17 18 23 24 22 20 18 17 15 15 13 11 8 7 6 6 7 6 6 4 3 3 3 3 3 2 3 3
8 10 11 15 11 6 7 6 4 6 5 6 7 10 12 8 12 15 15 16 16 17 17 23 24 22 20 18 17 16 15 13 11 9 8 7 7 6 6 5 4 3 3 3 3 4 4 5 5
13 9 11 10 11 7 7 5 3 2 3 8 2 12 10 11 12 14 14 15 15 17 19 21 23 22 20 19 17 17 16 13 11 10 8 7 7 6 5 4 4 3 3 3 4 5 5 6 6
17 10 13 6 10 8 6 3 5 3 3 10 1 11 9 11 12 15 14 15 16 16 16 21 24 23 22 20 19 18 16 14 12 11 10 9 7 7 6 5 5 4 4 5 5 5 5 5 6
13 9 5 7 9 11 6 4 3 8 6 5 2 5 15 14 16 15 14 14 16 17 16 18 22 24 24 22 21 19 17 15 14 12 11 9 9 8 7 6 5 6 8 7 7 6 6 6 7
8 10 10 9 4 10 7 7 8 3 4 5 4 6 8 16 18 16 16 15 15 16 18 18 20 21 21 21 23 20 18 18 16 15 13 12 10 10 8 7 7 7 7 7 6 6 7 8 10
11 11 3 6 4 3 6 10 4 11 9 9 8 4 8 14 17 19 19 19 18 18 18 18 19 20 21 20 21 21 21 20 19 18 16 13 10 6 7 11 7 7 6 6 6 6 7 9 7
14 15 7 5 5 5 5 9 7 11 6 5 9 15 12 14 17 18 19 19 20 18 19 20 23 23 20 21 22 19 19 18 18 18 17 13 13 12 12 10 8 8 6 5 3 5 6 6 6
11 15 5 7 6 10 11 11 8 15 14 1 4 5 12 15 18 20 20 21 21 19 17 18 21 26 27 25 22 21 22 21 20 20 17 14 13 13 9 8 6 3 10 5 7 7 7 9 11
12 14 10 14 12 14 15 15 17 19 11 12 12 11 14 15 18 19 19 20 19 19 19 19 19 26 27 27 25 25 20 21 17 16 18 16 12 10 10 10 11 9 6 8 9 9 10 10 11
9 11 11 14 15 17 18 20 22 25 19 21 19 19 18 17 17 18 20 21 21 20 20 20 20 21 26 27 27 26 20 16 18 17 16 17 13 12 12 14 10 10 11 11 11 10 10 12 12
13 15 16 20 20 18 16 18 24 28 21 24 23 23 21 18 18 19 19 21 22 21 20 22 22 22 24 26 25 25 18 19 20 18 14 16 19 15 13 11 12 10 10 15 17 17 18 17 12
15 16 15 16 10 9 12 16 11 13 13 18 20 22 21 20 19 20 18 20 22 21 22 22 23 25 23 25 24 23 22 23 21 20 22 20 18 15 14 11 7 8 12 15 16 14 19 24 26
16 14 18 10 11 8 14 15 7 7 10 14 15 17 19 16 17 19 19 21 22 23 23 23 24 26 26 26 24 23 23 24 26 23 20 17 16 15 12 10 8 11 9 12 11 15 17 20 23
7 17 15 9 10 10 14 16 15 12 13 14 13 14 16 17 16 17 18 23 23 23 24 24 23 24 29 28 26 24 24 23 24 23 22 18 17 16 14 9 10 9 8 10 12 21 17 21 21
11 13 14 10 4 4 15 17 17 18 15 17 18 17 17 18 18 16 15 21 24 24 25 26 26 24 28 33 32 30 27 25 24 23 21 19 17 16 11 9 9 7 11 13 17 17 22 25 26
13 14 15 14 10 6 16 19 17 15 19 21 20 22 24 22 21 19 15 16 21 24 25 26 26 25 30 31 33 33 29 26 25 24 23 21 18 17 11 12 12 14 16 18 20 19 19 19 17
15 16 15 13 7 12 17 20 24 23 23 23 20 15 17 8 8 10 14 17 17 18 21 24 25 25 32 31 32 26 26 26 26 26 23 22 17 16 16 16 14 11 15 15 18 18 16 18 19
13 15 12 13 12 11 3 13 8 6 10 14 18 17 11 9 7 7 8 12 15 15 16 19 24 26 35 34 32 33 32 27 28 21 22 19 19 18 18 15 13 14 14 16 16 14 19 17 20
8 2 8 12 14 14 17 10 14 13 9 13 14 14 9 8 8 5 6 8 10 13 16 18 21 26 35 33 34 36 28 26 23 23 19 19 18 17 16 15 14 16 16 17 18 20 19 22 23
2 6 10 12 12 13 18 14 10 12 15 6 5 9 10 9 5 4 6 7 9 11 15 16 20 24 33 35 37 33 31 27 22 23 20 20 17 18 17 16 16 16 17 18 20 21 23 24 26
10 9 7 9 8 12 2 5 12 12 3 5 7 11 8 5 4 3 6 7 8 9 12 13 16 21 25 27 33 31 31 27 27 21 21 20 17 15 16 16 15 17 19 20 20 23 26 28 29
14 14 8 10 11 12 9 5 8 3 4 4 9 7 9 9 7 5 6 7 8 10 11 12 14 17 17 24 30 31 28 27 20 22 20 19 15 12 11 14 16 19 21 22 25 27 28 27 27
9 9 13 15 15 15 16 20 14 14 13 13 12 12 13 10 9 6 6 7 9 9 12 14 15 19 22 25 29 27 27 20 23 23 21 17 17 14 15 16 19 23 24 27 27 30 29 27 28
15 9 7 9 10 17 11 14 9 7 10 9 10 14 15 12 12 10 10 10 10 12 13 15 16 18 20 24 24 22 21 23 22 20 21 18 17 16 17 17 22 25 25 26 26 28 27 26 29
10 14 15 16 13 16 17 15 4 7 8 6 9 11 13 13 13 13 14 13 14 15 17 18 18 20 21 24 25 27 27 25 24 23 20 19 19 19 18 20 22 22 21 22 24 26 29 29 31
15 19 17 13 15 16 16 15 15 16 14 11 14 12 15 17 14 13 12 14 17 20 21 22 23 25 26 26 26 28 27 28 26 24 23 21 21 18 19 21 22 24 25 23 25 29 30 33 34
Wind_Direction
166 177 202 231 237 236 201 129 101 113 128 49 25 356 24 25 13 69 146 108 144 156 168 170 168 164 162 162 167 171 170 168 163 155 147 140 138 130 125 128 133 136 134 134 130 121 109 110 110
188 214 223 260 252 222 110 121 171 77 91 101 99 115 40 56 59 99 84 123 145 152 168 175 172 171 170 169 169 172 172 170 165 158 152 146 140 139 143 152 155 149 142 131 146 144 142 141 120
176 210 255 236 245 96 215 94 89 98 135 182 112 50 28 88 101 101 132 138 149 155 163 178 177 176 176 175 175 174 174 174 172 167 157 150 152 158 155 169 167 146 149 167 184 177 158 165 167
179 207 247 244 159 191 97 95 111 128 133 14 77 103 94 78 105 143 134 142 149 157 164 178 180 180 180 180 179 178 181 181 179 173 163 160 164 171 169 172 162 169 191 195 203 228 227 229 216
215 253 251 233 73 118 100 90 192 121 83 89 309 97 103 111 119 133 140 147 153 158 175 180 181 182 184 185 185 186 189 188 185 180 176 171 181 182 181 176 182 203 213 214 222 235 239 241 245
235 259 242 212 124 123 102 138 182 60 88 86 135 115 100 139 135 146 147 153 161 161 193 188 185 187 190 191 192 194 195 194 194 193 187 187 192 196 199 205 211 226 240 251 241 244 249 251 253
251 224 265 66 121 157 101 161 207 196 276 123 37 126 121 150 161 155 153 159 164 169 204 189 190 192 196 198 199 201 201 201 203 201 199 202 202 203 208 222 231 245 260 261 267 278 279 278 273
278 277 246 231 177 126 139 197 177 241 151 88 271 133 157 167 160 159 162 164 167 172 201 192 193 196 199 201 202 203 205 207 209 208 209 212 213 212 217 227 237 246 242 241 247 255 272 285 284
252 254 210 177 207 126 161 207 189 256 246 234 158 57 104 164 165 166 170 176 177 184 199 194 187 201 200 204 204 204 207 210 211 212 215 218 224 217 217 226 233 249 240 252 270 288 294 290 286
246 253 239 90 54 129 191 226 164 209 193 186 198 153 159 171 180 181 185 188 191 189 192 194 190 212 202 201 211 205 209 211 211 216 218 213 203 219 219 243 247 248 252 257 266 281 293 297 284
236 261 64 161 233 256 262 221 224 241 226 243 203 180 184 189 196 202 200 199 198 199 196 195 191 204 196 204 209 203 206 206 212 218 220 200 209 216 215 249 272 254 245 250 275 288 310 305 256
255 253 282 251 185 244 244 266 254 236 263 73 249 242 195 207 211 212 212 206 202 199 201 196 208 204 203 200 198 208 211 212 208 217 217 209 215 228 216 254 284 234 250 213 249 260 253 254 272
246 268 236 247 243 241 254 253 252 258 247 249 240 225 223 224 224 223 218 215 206 203 200 197 204 210 208 208 201 209 203 218 213 219 221 215 221 222 224 225 218 234 230 256 261 266 269 273 270
307 267 263 246 242 245 248 254 250 247 251 246 241 235 231 227 230 222 220 214 209 207 205 197 200 217 210 211 212 206 197 222 206 220 227 213 208 225 220 222 214 230 237 241 250 259 256 276 276
269 259 257 242 236 235 241 253 246 249 243 247 247 228 243 228 230 227 221 218 215 209 206 202 198 218 209 211 217 216 214 205 213 210 222 229 212 217 214 229 234 238 237 259 275 278 270 277 253
251 247 256 256 197 199 213 263 269 199 235 244 247 244 227 232 235 231 225 218 216 212 209 207 204 211 208 211 215 215 214 209 206 203 209 218 211 210 220 225 240 263 267 280 288 284 287 282 278
228 258 234 205 194 239 209 263 89 166 228 246 235 232 223 229 229 228 226 222 218 215 210 209 217 216 214 213 212 214 215 220 218 219 219 211 213 219 225 238 242 256 268 282 293 287 286 288 288
271 212 243 256 172 210 255 249 269 231 215 232 232 218 218 219 228 225 229 222 220 217 213 211 217 219 215 215 213 215 218 216 215 215 205 209 220 224 233 241 247 260 278 272 277 294 285 292 291
311 288 286 283 256 246 265 261 262 262 228 223 226 229 231 235 236 234 222 221 220 218 213 214 211 212 221 215 211 213 214 210 208 202 208 214 223 236 230 227 242 263 251 267 265 279 280 287 291
259 262 263 266 262 278 267 269 265 251 244 242 233 230 231 231 231 227 225 224 220 221 219 217 215 213 231 221 214 218 215 207 204 207 213 216 227 228 222 224 225 247 286 293 293 288 287 279 278
246 256 264 272 272 234 262 271 248 239 241 241 242 250 256 258 250 235 228 228 227 225 222 222 222 220 228 231 213 213 205 208 201 209 216 221 219 223 221 234 261 271 285 287 287 289 283 285 276
256 241 253 268 264 267 141 279 288 193 216 215 228 226 226 214 205 202 208 218 225 227 228 226 221 219 229 232 224 210 205 201 206 205 210 207 209 208 223 238 260 268 266 269 282 292 290 286 282
270 354 260 253 260 274 268 255 263 247 219 228 230 166 179 172 182 197 214 213 216 214 218 212 214 215 225 228 218 209 204 207 206 211 203 195 208 208 230 252 260 264 271 280 287 289 283 285 291
321 238 244 252 254 256 253 252 264 232 198 125 89 132 157 173 189 204 205 208 210 208 230 213 203 209 221 225 212 212 211 208 203 192 190 193 205 221 238 247 255 261 273 281 283 285 286 281 278
220 241 255 222 218 252 176 256 253 316 301 272 194 190 187 204 228 208 227 229 206 211 223 217 210 216 223 218 207 211 211 208 201 199 194 196 202 218 234 244 259 269 277 282 282 281 283 282 276
207 248 257 290 294 293 154 234 237 265 29 274 266 242 232 224 206 228 233 214 212 212 230 227 218 223 216 206 210 215 214 207 205 195 199 202 206 218 225 253 265 274 278 283 283 282 281 276 275
206 234 263 277 272 271 267 272 264 229 215 238 243 239 225 227 211 228 222 217 219 218 233 234 226 215 209 208 207 214 205 202 195 202 199 203 214 215 235 253 271 279 282 284 285 285 285 279 275
251 289 249 221 260 266 250 248 263 176 199 234 236 230 224 227 211 221 221 217 224 231 232 236 225 217 221 218 207 206 203 199 200 204 215 218 223 241 252 267 276 277 280 285 287 284 285 278 272
204 233 240 268 271 273 276 271 49 354 351 294 248 233 232 222 231 237 227 220 226 229 228 225 223 215 213 208 205 201 200 202 204 214 219 226 238 247 255 276 276 280 281 281 284 280 279 274 270
266 276 264 245 262 256 262 258 265 278 266 233 255 254 234 253 240 244 246 253 249 240 228 226 223 216 215 210 207 204 204 212 214 219 226 234 242 244 275 285 284 281 286 284 279 277 276 274 274
Height
1509 1509 1512 1512 1505 1485 1474 1474 1466 1475 1479 1485 1484 1479 1474 1477 1473 1499 1506 1496 1506 1509 1509 1513 1517 1521 1524 1527 1530 1533 1535 1537 1539 1540 1541 1542 1542 1542 1543 1544 1544 1545 1545 1545 1545 1546 1546 1547 1548
1512 1512 1511 1502 1496 1480 1474 1469 1471 1472 1483 1487 1487 1486 1483 1488 1490 1495 1496 1502 1509 1511 1511 1514 1518 1522 1525 1528 1530 1534 1537 1538 1540 1541 1542 1542 1543 1543 1544 1545 1545 1546 1546 1546 1547 1547 1548 1548 1549
1508 1512 1507 1488 1477 1510 1487 1471 1475 1484 1487 1484 1486 1489 1491 1499 1501 1503 1504 1507 1510 1512 1514 1515 1519 1522 1525 1528 1531 1534 1537 1539 1540 1541 1542 1543 1544 1544 1545 1546 1546 1546 1546 1547 1548 1549 1548 1549 1549
1511 1510 1504 1490 1471 1483 1473 1475 1478 1484 1487 1485 1483 1489 1500 1503 1504 1505 1506 1510 1512 1514 1517 1517 1520 1523 1526 1529 1533 1535 1537 1539 1540 1542 1543 1543 1544 1545 1546 1546 1546 1547 1547 1547 1547 1548 1548 1549 1549
1510 1501 1487 1477 1474 1478 1478 1481 1479 1478 1484 1487 1486 1488 1499 1505 1505 1507 1508 1510 1513 1515 1518 1518 1521 1524 1527 1530 1532 1535 1537 1538 1540 1541 1543 1544 1545 1545 1545 1546 1546 1547 1548 1547 1548 1548 1548 1549 1549
1503 1494 1483 1474 1477 1479 1481 1485 1485 1482 1487 1490 1487 1491 1501 1505 1507 1507 1509 1511 1514 1516 1515 1517 1521 1524 1527 1529 1532 1534 1536 1539 1540 1542 1543 1543 1544 1545 1546 1547 1547 1547 1547 1548 1548 1547 1547 1548 1548
1499 1485 1473 1467 1478 1481 1483 1487 1485 1484 1486 1485 1490 1488 1501 1505 1506 1507 1509 1511 1513 1516 1514 1516 1519 1522 1526 1528 1531 1533 1536 1538 1540 1541 1542 1543 1544 1545 1546 1547 1547 1547 1548 1547 1548 1548 1548 1549 1549
1497 1485 1479 1473 1482 1483 1486 1486 1489 1487 1482 1490 1490 1485 1496 1503 1505 1508 1510 1511 1512 1515 1513 1514 1517 1520 1523 1526 1529 1532 1535 1537 1539 1540 1541 1543 1544 1545 1546 1547 1547 1547 1546 1546 1546 1545 1546 1547 1548
1500 1488 1477 1476 1479 1480 1486 1486 1490 1490 1487 1490 1492 1490 1496 1501 1504 1507 1510 1511 1511 1512 1511 1513 1517 1519 1522 1525 1527 1531 1534 1535 1537 1539 1540 1541 1542 1543 1545 1545 1546 1546 1546 1547 1548 1548 1547 1546 1546
1496 1481 1469 1472 1477 1483 1487 1486 1485 1487 1485 1488 1493 1496 1499 1501 1503 1504 1506 1508 1510 1511 1513 1516 1518 1518 1522 1525 1527 1530 1532 1534 1536 1537 1538 1541 1543 1545 1544 1544 1545 1545 1545 1545 1545 1546 1546 1545 1545
1492 1484 1476 1483 1485 1486 1482 1485 1487 1484 1480 1482 1487 1490 1497 1499 1501 1503 1503 1506 1508 1510 1511 1513 1513 1517 1520 1522 1525 1529 1530 1533 1534 1535 1537 1540 1542 1543 1545 1543 1543 1544 1544 1545 1546 1546 1545 1546 1548
1494 1487 1486 1483 1487 1488 1486 1483 1483 1483 1481 1484 1487 1490 1492 1495 1497 1499 1500 1502 1504 1508 1511 1512 1511 1514 1518 1520 1524 1525 1527 1529 1531 1533 1535 1538 1540 1541 1543 1544 1542 1545 1544 1545 1546 1546 1546 1546 1546
1493 1487 1487 1487 1488 1488 1487 1485 1485 1481 1481 1484 1486 1488 1489 1492 1492 1495 1497 1500 1503 1506 1508 1510 1510 1509 1512 1516 1519 1521 1525 1528 1531 1532 1534 1536 1538 1541 1542 1544 1544 1543 1544 1545 1544 1545 1544 1543 1541
1487 1488 1486 1486 1485 1485 1484 1482 1481 1479 1480 1481 1481 1484 1485 1487 1489 1490 1494 1496 1500 1503 1505 1507 1509 1506 1509 1513 1515 1519 1524 1526 1530 1530 1531 1534 1537 1539 1540 1540 1541 1541 1541 1541 1540 1540 1540 1541 1541
1492 1491 1484 1479 1479 1479 1481 1479 1473 1472 1474 1474 1474 1476 1480 1481 1485 1486 1489 1493 1496 1499 1503 1504 1507 1506 1508 1511 1514 1517 1521 1524 1525 1529 1530 1530 1531 1533 1535 1535 1536 1537 1538 1537 1537 1537 1537 1537 1537
1490 1484 1483 1463 1468 1475 1481 1473 1453 1462 1469 1469 1471 1471 1474 1477 1479 1481 1484 1488 1492 1496 1499 1501 1501 1502 1504 1508 1511 1513 1516 1518 1521 1524 1525 1525 1527 1529 1530 1530 1533 1535 1536 1534 1534 1534 1533 1531 1529
1480 1482 1470 1464 1467 1468 1475 1466 1453 1465 1467 1466 1467 1468 1469 1472 1475 1477 1480 1483 1487 1491 1495 1497 1495 1497 1500 1503 1506 1509 1512 1513 1515 1518 1520 1523 1526 1527 1529 1530 1531 1531 1531 1532 1532 1531 1530 1529 1527
1470 1471 1467 1466 1460 1470 1468 1463 1457 1457 1462 1463 1463 1464 1466 1468 1470 1472 1476 1479 1482 1486 1490 1494 1493 1492 1495 1499 1503 1505 1507 1510 1512 1514 1517 1520 1522 1524 1526 1528 1530 1531 1532 1532 1531 1527 1527 1524 1525
1472 1473 1471 1459 1459 1471 1470 1463 1457 1452 1452 1457 1458 1460 1462 1463 1465 1467 1470 1474 1478 1482 1484 1488 1490 1491 1490 1493 1496 1500 1503 1506 1509 1512 1515 1517 1519 1521 1523 1526 1528 1528 1527 1526 1525 1524 1523 1521 1519
1480 1478 1473 1463 1460 1467 1465 1458 1449 1447 1448 1449 1449 1452 1453 1455 1457 1462 1467 1471 1474 1477 1480 1483 1486 1489 1487 1489 1493 1495 1497 1501 1505 1507 1509 1512 1514 1517 1519 1521 1520 1519 1519 1519 1519 1519 1517 1517 1517
1478 1477 1471 1468 1461 1461 1461 1457 1443 1439 1441 1443 1444 1447 1449 1451 1456 1460 1465 1469 1471 1473 1476 1480 1483 1485 1482 1485 1490 1491 1493 1496 1499 1501 1504 1506 1509 1513 1514 1513 1514 1514 1513 1514 1514 1513 1513 1511 1511
1477 1463 1469 1470 1471 1471 1450 1466 1437 1433 1436 1437 1439 1442 1445 1451 1458 1459 1461 1464 1467 1469 1471 1473 1476 1478 1474 1479 1483 1484 1487 1489 1491 1496 1497 1499 1501 1504 1504 1506 1508 1509 1510 1510 1510 1509 1507 1507 1506
1472 1468 1470 1468 1468 1464 1456 1459 1439 1424 1433 1432 1429 1434 1446 1451 1455 1457 1459 1459 1461 1462 1462 1463 1467 1470 1468 1473 1476 1479 1481 1485 1489 1491 1494 1497 1499 1501 1502 1504 1504 1505 1505 1505 1504 1504 1505 1505 1501
1469 1472 1471 1469 1468 1475 1455 1455 1438 1426 1425 1427 1436 1440 1446 1449 1451 1453 1454 1455 1456 1456 1454 1456 1460 1462 1462 1464 1468 1472 1477 1480 1483 1486 1489 1491 1491 1493 1496 1496 1497 1498 1499 1498 1499 1498 1498 1497 1496
1470 1469 1476 1477 1472 1469 1439 1449 1435 1422 1428 1432 1435 1440 1444 1446 1447 1449 1450 1451 1453 1453 1451 1452 1455 1456 1458 1462 1466 1469 1472 1474 1476 1479 1481 1483 1488 1489 1490 1491 1493 1495 1496 1495 1493 1492 1489 1488 1485
1465 1464 1470 1480 1468 1450 1451 1456 1440 1426 1430 1437 1435 1438 1442 1444 1444 1446 1447 1448 1449 1449 1449 1449 1450 1452 1454 1455 1459 1463 1467 1469 1472 1475 1479 1481 1484 1487 1489 1489 1490 1491 1489 1488 1486 1484 1482 1481 1479
1454 1466 1453 1463 1459 1465 1451 1435 1425 1422 1428 1430 1436 1437 1439 1439 1441 1444 1445 1446 1447 1447 1447 1446 1447 1449 1450 1452 1457 1460 1462 1466 1470 1472 1474 1475 1478 1480 1482 1484 1485 1485 1483 1482 1480 1478 1477 1475 1473
1454 1449 1466 1458 1477 1470 1441 1434 1428 1428 1427 1428 1431 1433 1435 1436 1438 1440 1442 1443 1444 1445 1444 1443 1444 1447 1449 1452 1455 1458 1461 1463 1465 1468 1468 1469 1472 1474 1476 1477 1478 1478 1477 1475 1474 1473 1471 1469 1466
1450 1456 1456 1454 1451 1458 1456 1440 1422 1425 1426 1425 1425 1429 1432 1436 1437 1438 1439 1438 1439 1441 1442 1443 1442 1445 1446 1448 1449 1450 1452 1453 1457 1459 1463 1465 1467 1469 1470 1471 1470 1469 1469 1469 1468 1467 1465 1463 1461
1441 1442 1440 1452 1453 1437 1435 1434 1418 1422 1425 1427 1427 1428 1431 1432 1433 1435 1436 1437 1437 1436 1435 1436 1437 1438 1441 1443 1445 1445 1447 1448 1451 1453 1456 1458 1460 1462 1465 1464 1464 1462 1461 1461 1459 1459 1457 1455 1453